{"data":{"norad_id":56013,"epoch":"2026-05-24T23:18:08.287200Z","epoch_age_seconds":84380,"freshness":"FRESH","line1":"1 56013U 23042AD  26144.97092925  .00000343  00000+0  22005-4 0  9998","line2":"2 56013  43.0037 348.9724 0001764 258.2027 101.8626 15.27577131174538","mean_motion":15.27577131,"eccentricity":0.0001764,"inclination_deg":43.0037,"raan_deg":348.9724,"arg_perigee_deg":258.2027,"mean_anomaly_deg":101.8626,"bstar":2.2005e-5,"rev_number":17453,"period_min":94.266925759574,"perigee_km":481.84737212845,"apogee_km":484.26800161398,"semimajor_km":6861.1946868712,"source":"CELESTRAK","updated_at":"2026-05-25T13:38:17.926951Z"}}